Weather History for KTUL - September, 2014

Change the Weather History Date:

Tuesday, September 9, 2014

  Actual Average Record
Temperature  
Mean Temperature 86 °F 76 °F  
Max Temperature 96 °F 87 °F 102 °F (1909)
Min Temperature 76 °F 65 °F 51 °F (1943)
Degree Days  
Heating Degree Days 0 0  
Month to date heating degree days 0 0  
Since 1 July heating degree days 1 0  
Cooling Degree Days 21 11  
Month to date cooling degree days 126 112  
Year to date cooling degree days 1779 1813  
Growing Degree Days 36 (Base 50)    
Moisture  
Dew Point 70 °F    
Average Humidity 62    
Maximum Humidity 82    
Minimum Humidity 42    
Precipitation  
Precipitation 0.00 in 0.15 in 2.67 in (1951)
Month to date precipitation 1.28 1.24  
Year to date precipitation 19.80 28.72  
Sea Level Pressure  
Sea Level Pressure 29.81 in    
Wind  
Wind Speed 17 mph (South)    
Max Wind Speed 26 mph    
Max Gust Speed 32 mph    
Visibility 10 miles    
Events      
T = Trace of Precipitation, MM = Missing Value Source: NWS Daily Summary

Daily Weather History Graph

Daily Weather History Graph

Search for Another Location

Airport or City:

Trip Planner

Search our weather history database for the weather conditions in past years. The results will help you decide how hot, cold, wet, or windy it might be!

Date:

Astronomy

Sep. 09, 2014 Rise Set
Actual Time 7:01 AM CDT 7:39 PM CDT
Civil Twilight 6:35 AM CDT 8:05 PM CDT
Nautical Twilight 6:04 AM CDT 8:36 PM CDT
Astronomical Twilight 5:33 AM CDT 9:07 PM CDT
Moon 8:03 PM CDT (9/9) 7:37 AM CDT (9/9)
Length of Visible Light 13h 30m
Length of Day
12h 38m
Waxing Gibbous, 99% of the Moon is Illuminated
Sep 9
Waxing Gibbous
Sep 15
Last Quarter
Sep 24
New
Oct 1
First Quarter
Oct 8
Full

Hourly Weather History & Observations

Time (CDT) Temp. Heat Index Dew Point Humidity Pressure Visibility Wind Dir Wind Speed Gust Speed Precip Events Conditions
12:53 AM 79.0 °F - 70.0 °F 74% 29.90 in 10.0 mi South 12.7 mph - N/A   Clear
1:53 AM 78.1 °F - 70.0 °F 76% 29.89 in 10.0 mi South 11.5 mph - N/A   Clear
2:53 AM 78.1 °F - 71.1 °F 79% 29.89 in 10.0 mi South 11.5 mph - N/A   Partly Cloudy
3:53 AM 77.0 °F - 71.1 °F 82% 29.89 in 9.0 mi South 13.8 mph - N/A   Clear
4:53 AM 77.0 °F - 70.0 °F 79% 29.89 in 9.0 mi South 12.7 mph - N/A   Clear
5:53 AM 77.0 °F - 70.0 °F 79% 29.89 in 10.0 mi South 12.7 mph - N/A   Clear
6:53 AM 77.0 °F - 70.0 °F 79% 29.89 in 10.0 mi South 15.0 mph - N/A   Partly Cloudy
7:53 AM 77.0 °F - 70.0 °F 79% 29.89 in 9.0 mi South 12.7 mph - N/A   Partly Cloudy
8:53 AM 80.1 °F 83.2 °F 70.0 °F 71% 29.90 in 10.0 mi South 16.1 mph - N/A   Partly Cloudy
9:53 AM 84.0 °F 89.0 °F 71.1 °F 65% 29.90 in 10.0 mi South 16.1 mph - N/A   Partly Cloudy
10:53 AM 88.0 °F 92.9 °F 70.0 °F 55% 29.89 in 10.0 mi South 19.6 mph 26.5 mph N/A   Partly Cloudy
11:53 AM 90.0 °F 96.4 °F 71.1 °F 54% 29.87 in 10.0 mi South 17.3 mph - N/A   Scattered Clouds
12:53 PM 93.0 °F 99.0 °F 70.0 °F 47% 29.84 in 10.0 mi South 18.4 mph 27.6 mph N/A   Partly Cloudy
2:53 PM 95.0 °F 99.5 °F 68.0 °F 41% 29.77 in 10.0 mi South 23.0 mph 29.9 mph N/A   Scattered Clouds
3:53 PM 96.8 °F 103.1 °F 69.8 °F 41% 29.77 in 10.0 mi South 18.4 mph 25.3 mph N/A   Scattered Clouds
4:53 PM 93.9 °F 100.3 °F 70.0 °F 46% 29.73 in 10.0 mi SSE 17.3 mph - N/A   Mostly Cloudy
5:53 PM 93.0 °F 97.9 °F 69.1 °F 45% 29.71 in 10.0 mi SSE 20.7 mph 31.1 mph N/A   Scattered Clouds
6:53 PM 91.0 °F 95.6 °F 69.1 °F 48% 29.69 in 10.0 mi SSE 18.4 mph 26.5 mph N/A   Partly Cloudy
7:53 PM 89.1 °F 93.7 °F 69.1 °F 52% 29.68 in 10.0 mi South 18.4 mph - N/A   Partly Cloudy
8:53 PM 87.1 °F 91.3 °F 69.1 °F 55% 29.68 in 10.0 mi South 21.9 mph 27.6 mph N/A   Partly Cloudy
9:53 PM 86.0 °F 90.1 °F 69.1 °F 57% 29.69 in 10.0 mi SSE 13.8 mph 24.2 mph N/A   Partly Cloudy
10:53 PM 84.9 °F 88.8 °F 69.1 °F 59% 29.67 in 10.0 mi South 18.4 mph 25.3 mph N/A   Clear
11:53 PM 84.0 °F 87.0 °F 68.0 °F 58% 29.66 in 10.0 mi South 24.2 mph 31.1 mph N/A   Clear